Private Wetterstation Ehingen
Wetterdaten: aktuell Sonntag, 21.01.2018 15:25
Datum Zeit Temperatur ThetaE Apparent Tem Schwlewert Windchill X Luftfeuchte Gewitter-dex Luftdruck Regen Wind Richtung Richtung T Regen Regenrate UV Solar Taupunkt Windchill Windben
21.01.2018 15:25 3,9 C 17,3 C 1,5 C 2,6 C 2,3 C 66 % 0 cb 1018,5 hPa 0,0 l/m 1,0 km/h (0 Bft) O-SO 112 0 min 0,000 mm 0,0 UV-I 9 W/m -1,9 C 3,9 C 0,0 km/h (0 Bft)
21.01.2018 15:20 4,4 C 17,8 C 1,9 C 3,3 C 3,3 C 64 % 0 cb 1018,5 hPa 0,0 l/m 1,2 km/h (1 Bft) O-SO 112 0 min 0,000 mm 0,0 UV-I 13 W/m -1,8 C 4,4 C 4,8 km/h (1 Bft)
21.01.2018 15:15 5,0 C 18,5 C 2,6 C 4,6 C 4,1 C 62 % 0 cb 1018,5 hPa 0,0 l/m 1,0 km/h (0 Bft) O-NO 67 0 min 0,000 mm 0,0 UV-I 15 W/m -1,7 C 5,0 C 0,0 km/h (0 Bft)
21.01.2018 15:10 5,9 C 19,5 C 3,5 C 4,2 C 5,0 C 60 % 0 cb 1017,8 hPa 0,0 l/m 1,2 km/h (1 Bft) O-SO 112 0 min 0,000 mm 0,1 UV-I 21 W/m -1,3 C 5,9 C 0,0 km/h (0 Bft)
21.01.2018 15:05 5,9 C 19,3 C 3,4 C 5,6 C 5,2 C 58 % 0 cb 1017,8 hPa 0,0 l/m 1,5 km/h (1 Bft) NO 45 0 min 0,000 mm 0,1 UV-I 23 W/m -1,7 C 5,9 C 2,1 km/h (1 Bft)
21.01.2018 15:00 7,1 C 20,5 C 4,6 C 5,8 C 7,1 C 55 % 0 cb 1017,8 hPa 0,0 l/m 1,5 km/h (1 Bft) SO 135 0 min 0,000 mm 0,1 UV-I 17 W/m -1,3 C 7,1 C 3,1 km/h (1 Bft)
21.01.2018 14:55 7,1 C 20,8 C 4,6 C 6,2 C 7,1 C 55 % 0 cb 1017,8 hPa 0,0 l/m 1,5 km/h (1 Bft) SO 135 0 min 0,000 mm 0,1 UV-I 26 W/m -1,3 C 7,1 C 3,1 km/h (1 Bft)
21.01.2018 14:50 7,2 C 21,0 C 4,9 C 5,1 C 6,3 C 56 % 0 cb 1017,6 hPa 0,0 l/m 1,0 km/h (0 Bft) S-SW 202 0 min 0,000 mm 0,1 UV-I 38 W/m -1,0 C 7,2 C 0,0 km/h (0 Bft)
21.01.2018 14:45 6,6 C 20,1 C 4,1 C 4,9 C 6,2 C 56 % 0 cb 1017,6 hPa 0,0 l/m 1,7 km/h (1 Bft) W 270 0 min 0,000 mm 0,1 UV-I 27 W/m -1,5 C 6,6 C 4,4 km/h (1 Bft)
21.01.2018 14:40 6,5 C 20,0 C 3,6 C 4,3 C 5,8 C 56 % 0 cb 1017,6 hPa 0,0 l/m 3,3 km/h (1 Bft) W-SW 247 0 min 0,000 mm 0,1 UV-I 33 W/m -1,6 C 6,5 C 2,3 km/h (1 Bft)
21.01.2018 14:35 6,2 C 19,5 C 3,3 C 5,3 C 5,5 C 56 % 0 cb 1017,6 hPa 0,0 l/m 3,1 km/h (1 Bft) NW 315 0 min 0,000 mm 0,1 UV-I 41 W/m -1,9 C 6,2 C 5,0 km/h (1 Bft)
21.01.2018 14:30 6,5 C 20,3 C 4,0 C 4,7 C 5,3 C 58 % 0 cb 1017,4 hPa 0,0 l/m 1,7 km/h (1 Bft) O-SO 112 0 min 0,000 mm 0,1 UV-I 44 W/m -1,2 C 6,5 C 4,2 km/h (1 Bft)
21.01.2018 14:25 5,8 C 19,5 C 3,2 C 2,9 C 3,9 C 61 % 0 cb 1017,4 hPa 0,0 l/m 2,5 km/h (1 Bft) O-NO 67 0 min 0,000 mm 0,1 UV-I 47 W/m -1,1 C 5,8 C 2,5 km/h (1 Bft)
21.01.2018 14:20 4,9 C 18,1 C 1,8 C 2,6 C 2,0 C 61 % 0 cb 1017,4 hPa 0,0 l/m 4,4 km/h (1 Bft) NW 315 0 min 0,000 mm 0,1 UV-I 29 W/m -2,0 C 4,9 C 4,2 km/h (1 Bft)
21.01.2018 14:15 4,6 C 17,8 C 1,6 C 2,6 C 2,0 C 62 % 0 cb 1017,4 hPa 0,0 l/m 3,7 km/h (1 Bft) W-SW 247 0 min 0,000 mm 0,1 UV-I 24 W/m -2,0 C 4,6 C 8,5 km/h (2 Bft)
21.01.2018 14:10 4,6 C 17,8 C 1,7 C 2,9 C 2,6 C 62 % 0 cb 1017,2 hPa 0,0 l/m 3,3 km/h (1 Bft) W 270 0 min 0,000 mm 0,1 UV-I 14 W/m -2,0 C 4,6 C 5,8 km/h (2 Bft)
21.01.2018 14:05 4,8 C 18,1 C 2,1 C 3,9 C 3,1 C 62 % 0 cb 1017,2 hPa 0,0 l/m 2,3 km/h (1 Bft) W-SW 247 0 min 0,000 mm 0,1 UV-I 16 W/m -1,9 C 4,8 C 6,6 km/h (2 Bft)
21.01.2018 14:00 5,5 C 19,0 C 2,8 C 4,4 C 4,4 C 60 % 0 cb 1017,2 hPa 0,0 l/m 2,3 km/h (1 Bft) W 270 0 min 0,000 mm 0,1 UV-I 26 W/m -1,6 C 5,5 C 3,9 km/h (1 Bft)
21.01.2018 13:55 5,8 C 19,5 C 3,1 C 5,0 C 5,0 C 60 % 0 cb 1017,2 hPa 0,0 l/m 2,7 km/h (1 Bft) SO 135 0 min 0,000 mm 0,2 UV-I 48 W/m -1,4 C 5,8 C 0,0 km/h (0 Bft)
21.01.2018 13:50 6,2 C 20,0 C 3,4 C 4,8 C 5,0 C 59 % 0 cb 1017,6 hPa 0,0 l/m 3,1 km/h (1 Bft) S 180 0 min 0,000 mm 0,2 UV-I 60 W/m -1,2 C 6,2 C 5,6 km/h (2 Bft)
21.01.2018 13:45 6,0 C 19,8 C 3,3 C 4,9 C 4,1 C 60 % 0 cb 1017,6 hPa 0,0 l/m 2,9 km/h (1 Bft) W-NW 292 0 min 0,000 mm 0,3 UV-I 80 W/m -1,2 C 6,0 C 4,8 km/h (1 Bft)
21.01.2018 13:40 5,8 C 19,8 C 3,2 C 4,7 C 4,4 C 62 % 0 cb 1017,6 hPa 0,0 l/m 2,3 km/h (1 Bft) SW 225 0 min 0,000 mm 0,2 UV-I 50 W/m -0,9 C 5,8 C 2,5 km/h (1 Bft)
21.01.2018 13:35 5,6 C 19,5 C 2,9 C 3,4 C 3,7 C 63 % 0 cb 1017,6 hPa 0,0 l/m 3,1 km/h (1 Bft) NW 315 0 min 0,000 mm 0,3 UV-I 78 W/m -0,9 C 5,6 C 2,9 km/h (1 Bft)
21.01.2018 13:30 4,8 C 18,4 C 1,9 C 2,0 C 2,0 C 64 % 0 cb 1017,1 hPa 0,0 l/m 3,7 km/h (1 Bft) SO 135 0 min 0,000 mm 0,1 UV-I 39 W/m -1,4 C 4,8 C 5,6 km/h (2 Bft)
21.01.2018 13:25 3,8 C 17,1 C 0,8 C 1,6 C 1,1 C 67 % 0 cb 1017,1 hPa 0,0 l/m 4,1 km/h (1 Bft) S-SO 157 0 min 0,000 mm 0,1 UV-I 14 W/m -1,8 C 3,8 C 3,1 km/h (1 Bft)
21.01.2018 13:20 3,9 C 17,0 C 0,7 C 2,0 C 1,0 C 64 % 0 cb 1017,1 hPa 0,0 l/m 4,4 km/h (1 Bft) W 270 0 min 0,000 mm 0,1 UV-I 20 W/m -2,3 C 3,9 C 6,6 km/h (2 Bft)
21.01.2018 13:15 4,1 C 17,3 C 1,0 C 2,0 C 1,1 C 64 % 0 cb 1017,1 hPa 0,0 l/m 4,1 km/h (1 Bft) W 270 0 min 0,000 mm 0,1 UV-I 34 W/m -2,1 C 4,1 C 11,4 km/h (2 Bft)
21.01.2018 13:10 4,1 C 17,3 C 1,0 C 2,6 C 0,7 C 64 % 0 cb 1016,6 hPa 0,0 l/m 4,2 km/h (1 Bft) W-NW 292 0 min 0,000 mm 0,1 UV-I 24 W/m -2,1 C 4,1 C 7,1 km/h (2 Bft)
21.01.2018 13:05 4,4 C 17,8 C 1,5 C 2,8 C 1,2 C 64 % 0 cb 1016,6 hPa 0,0 l/m 3,5 km/h (1 Bft) SW 225 0 min 0,000 mm 0,1 UV-I 31 W/m -1,8 C 4,4 C 3,3 km/h (1 Bft)
21.01.2018 13:00 4,9 C 18,0 C 1,6 C 2,7 C 1,0 C 60 % 0 cb 1016,6 hPa 0,0 l/m 5,4 km/h (2 Bft) W-SW 247 0 min 0,000 mm 0,2 UV-I 31 W/m -2,2 C 4,9 C 7,9 km/h (2 Bft)
21.01.2018 12:55 4,9 C 18,0 C 1,6 C 4,4 C 1,0 C 60 % 0 cb 1016,6 hPa 0,0 l/m 5,4 km/h (2 Bft) W-SW 247 0 min 0,000 mm 0,2 UV-I 37 W/m -2,2 C 4,9 C 7,9 km/h (2 Bft)
21.01.2018 12:50 5,1 C 19,5 C 3,1 C 5,3 C 3,4 C 58 % 0 cb 1016,2 hPa 0,0 l/m 3,5 km/h (1 Bft) N-NW 337 0 min 0,000 mm 0,2 UV-I 49 W/m -2,5 C 5,1 C 4,1 km/h (1 Bft)
21.01.2018 12:45 5,2 C 20,3 C 3,8 C 7,5 C 4,7 C 57 % 0 cb 1016,2 hPa 0,0 l/m 3,5 km/h (1 Bft) W-NW 292 0 min 0,000 mm 0,3 UV-I 68 W/m -2,6 C 5,2 C 5,6 km/h (2 Bft)
21.01.2018 12:40 5,1 C 22,1 C 5,1 C 8,6 C 6,3 C 54 % 0 cb 1016,2 hPa 0,0 l/m 4,8 km/h (1 Bft) O-SO 112 0 min 0,000 mm 0,5 UV-I 126 W/m -3,4 C 5,1 C 6,6 km/h (2 Bft)
21.01.2018 12:35 5,0 C 23,3 C 5,8 C 9,3 C 6,1 C 51 % 0 cb 1016,2 hPa 0,0 l/m 6,2 km/h (2 Bft) O-NO 67 0 min 0,000 mm 0,8 UV-I 195 W/m -4,3 C 5,0 C 7,3 km/h (2 Bft)
21.01.2018 12:30 5,0 C 23,8 C 6,0 C 9,6 C 6,6 C 52 % 0 cb 1016,4 hPa 0,0 l/m 6,6 km/h (2 Bft) S-SO 157 0 min 0,000 mm 0,8 UV-I 207 W/m -4,0 C 4,8 C 7,5 km/h (2 Bft)
21.01.2018 12:25 4,9 C 24,0 C 6,1 C 10,1 C 7,1 C 54 % 0 cb 1016,4 hPa 0,1 l/m 5,8 km/h (2 Bft) S 180 5 min 0,000 mm 0,8 UV-I 201 W/m -3,6 C 4,9 C 5,0 km/h (1 Bft)
21.01.2018 12:20 4,9 C 24,4 C 6,4 C 10,3 C 8,2 C 57 % 0 cb 1016,4 hPa 0,0 l/m 4,4 km/h (1 Bft) NW 315 0 min 0,600 mm 0,7 UV-I 180 W/m -2,9 C 4,9 C 9,8 km/h (2 Bft)
21.01.2018 12:15 4,8 C 24,4 C 6,2 C 9,7 C 8,2 C 60 % 0 cb 1016,4 hPa 0,0 l/m 4,1 km/h (1 Bft) S-SO 157 0 min 0,600 mm 0,6 UV-I 159 W/m -2,3 C 4,8 C 9,7 km/h (2 Bft)
21.01.2018 12:10 4,7 C 23,9 C 5,6 C 9,4 C 8,0 C 61 % 0 cb 1016,1 hPa 0,1 l/m 5,2 km/h (1 Bft) W 270 5 min 1,200 mm 0,6 UV-I 148 W/m -2,2 C 4,7 C 6,4 km/h (2 Bft)
21.01.2018 12:05 4,6 C 23,5 C 5,4 C 8,3 C 7,6 C 62 % 0 cb 1016,1 hPa 0,0 l/m 4,6 km/h (1 Bft) W 270 0 min 0,600 mm 0,6 UV-I 139 W/m -2,0 C 4,6 C 12,6 km/h (3 Bft)
_ Min-Zeit 08:20 08:30 08:30 08:25 07:30 12:35 15:25 00:00 - 01:20 - - - - - - 12:35 07:30 15:25
Minimum _ 0,6 C 14,5 C -2,7 C -0,6 C -2,6 C 51 % 0 cb 1000,1 hPa - 0,0 km/h (0 Bft) - - - - - - -4,3 C -0,6 C 0,0 km/h (0 Bft)
_ Max-Zeit 14:50 12:20 12:20 12:20 12:20 01:45 15:25 15:25 12:25 07:30 - - 12:25 10:04 12:35 12:30 11:45 14:50 05:55
Maximum _ 7,2 C 24,4 C 6,4 C 10,3 C 8,2 C 93 % 0 cb 1018,5 hPa 0,1 l/m 7,9 km/h
W (2 Bft)
- - 5 min 1,400 mm 0,8 UV-I 207 W/m 0,5 C 7,2 C 21,8 km/h
O-SO (4 Bft)
Durchschnitt _ 2,2 C 16,6 C -0,4 C 1,8 C 0,5 C 82 % 0 cb 1009,7 hPa #1,4 l/m 4,0 km/h (1 Bft) W - #1:09 h #25,200 mm 0,2 UV-I 16 W/m -0,7 C 2,1 C 6,1 km/h (2 Bft)